Weather History for KVLD - July, 2013

Change the Weather History Date:

Saturday, July 27, 2013

  Actual Average Record
Temperature  
Mean Temperature 86 °F 82 °F  
Max Temperature 96 °F 92 °F 100 °F (1999)
Min Temperature 75 °F 71 °F 68 °F (2000)
Cooling Degree Days 21 17  
Month to date cooling degree days 487 442  
Year to date cooling degree days 1602 1286  
Since 1 June cooling degree days 1040 874  
Growing Degree Days 35 (Base 50)    
Moisture  
Dew Point 72 °F    
Average Humidity 62    
Maximum Humidity 88    
Minimum Humidity 36    
Precipitation  
Precipitation 0.64 in 0.21 in 0.64 in (2013)
Month to date precipitation 9.24 5.76  
Year to date precipitation 27.57 30.82  
Sea Level Pressure  
Sea Level Pressure 29.99 in    
Wind  
Wind Speed 1 mph (East)    
Max Wind Speed 10 mph    
Max Gust Speed 13 mph    
Visibility 7 miles    
Events Rain , Thunderstorm    
T = Trace of Precipitation, MM = Missing Value Source: NWS Daily Summary

Daily Weather History Graph

Daily Weather History Graph

Search for Another Location

Airport or City:

Trip Planner

Search our weather history database for the weather conditions in past years. The results will help you decide how hot, cold, wet, or windy it might be!

Date:

Astronomy

Jul. 27, 2013 Rise Set
Actual Time 6:47 AM EDT 8:31 PM EDT
Civil Twilight 6:21 AM EDT 8:57 PM EDT
Nautical Twilight 5:49 AM EDT 9:29 PM EDT
Astronomical Twilight 5:15 AM EDT 10:02 PM EDT
Moon 11:47 PM EDT (7/27) 11:59 AM EDT (7/27)
Length of Visible Light 14h 36m
Length of Day
13h 43m
Waning Gibbous, 71% of the Moon is Illuminated
Jul 27
Waning Gibbous
Jul 29
Last Quarter
Aug 6
New
Aug 14
First Quarter
Aug 20
Full

Hourly Weather History & Observations

Time (EDT) Temp. Heat Index Dew Point Humidity Pressure Visibility Wind Dir Wind Speed Gust Speed Precip Events Conditions
12:53 AM 77.0 °F - 72.0 °F 84% 30.03 in 1.8 mi SSE 10.4 mph - 0.21 in Rain Heavy Rain
1:03 AM 77.0 °F - 73.4 °F 89% 30.02 in 0.8 mi SSE 6.9 mph - 0.48 in Rain Heavy Rain
1:17 AM 77.0 °F - 71.6 °F 83% 30.02 in 2.0 mi ENE 6.9 mph - 0.72 in Rain Heavy Rain
1:23 AM 75.2 °F - 71.6 °F 89% 30.01 in 4.0 mi ENE 8.1 mph - 0.73 in Rain Rain
1:30 AM 75.2 °F - 71.6 °F 89% 30.01 in 4.0 mi ENE 8.1 mph - 0.78 in Rain , Thunderstorm Thunderstorms and Rain
1:39 AM 77.0 °F - 71.6 °F 83% 30.01 in 5.0 mi NNE 5.8 mph - 0.81 in Rain Light Rain
1:53 AM 77.0 °F - 73.0 °F 88% 30.02 in 9.0 mi ENE 3.5 mph - 0.82 in Rain Light Rain
2:07 AM 78.8 °F - 73.4 °F 83% 29.98 in 9.0 mi SE 4.6 mph - 0.00 in   Overcast
2:53 AM 78.1 °F - 73.0 °F 84% 29.99 in 9.0 mi Calm Calm - 0.00 in   Overcast
3:53 AM 77.0 °F - 73.0 °F 88% 29.99 in 6.0 mi Calm Calm - N/A   Clear
4:53 AM 75.0 °F - 71.1 °F 87% 29.99 in 4.0 mi Calm Calm - N/A   Clear
5:53 AM 75.9 °F - 72.0 °F 87% 29.98 in 5.0 mi Calm Calm - N/A   Clear
6:44 AM 75.2 °F - 71.6 °F 89% 29.98 in 4.0 mi Calm Calm - N/A   Scattered Clouds
6:53 AM 75.9 °F - 72.0 °F 87% 29.99 in 4.0 mi Calm Calm - N/A   Scattered Clouds
7:20 AM 75.2 °F - 71.6 °F 89% 29.98 in 2.0 mi Calm Calm - N/A   Haze
7:53 AM 78.1 °F - 73.9 °F 87% 30.00 in 2.0 mi Calm Calm - N/A   Haze
8:53 AM 79.0 °F - 73.9 °F 84% 30.02 in 2.0 mi South 3.5 mph - N/A   Haze
9:38 AM 80.6 °F 86.2 °F 75.2 °F 84% 30.01 in 2.0 mi Calm Calm - N/A   Haze
9:53 AM 80.1 °F 84.5 °F 73.9 °F 81% 30.03 in 3.0 mi Calm Calm - N/A   Haze
10:27 AM 84.2 °F 92.3 °F 75.2 °F 74% 30.00 in 7.0 mi Calm Calm - N/A   Mostly Cloudy
10:43 AM 86.0 °F 95.1 °F 75.2 °F 70% 30.00 in 8.0 mi Calm Calm - N/A   Mostly Cloudy
10:53 AM 86.0 °F 95.1 °F 75.0 °F 70% 30.02 in 8.0 mi Calm Calm - N/A   Mostly Cloudy
11:00 AM 87.8 °F 97.6 °F 75.2 °F 66% 30.00 in 9.0 mi Calm Calm - N/A   Scattered Clouds
11:53 AM 91.0 °F 99.3 °F 73.0 °F 55% 30.01 in 10.0 mi Variable 3.5 mph - N/A   Scattered Clouds
12:53 PM 93.0 °F 100.7 °F 72.0 °F 50% 29.99 in 10.0 mi Calm Calm - N/A   Scattered Clouds
1:53 PM 93.9 °F 98.6 °F 68.0 °F 43% 29.97 in 10.0 mi Variable 3.5 mph - N/A   Scattered Clouds
2:53 PM 91.0 °F 95.2 °F 68.0 °F 47% 29.95 in 10.0 mi Variable 4.6 mph - N/A   Scattered Clouds
3:53 PM 95.0 °F 99.0 °F 66.9 °F 40% 29.94 in 10.0 mi Variable 4.6 mph - N/A   Clear
4:53 PM 95.0 °F 97.4 °F 64.9 °F 37% 29.92 in 10.0 mi Variable 4.6 mph - N/A   Clear
5:53 PM 93.9 °F 97.0 °F 66.0 °F 40% 29.94 in 10.0 mi NW 4.6 mph - N/A   Partly Cloudy
6:53 PM 88.0 °F 92.9 °F 70.0 °F 55% 29.94 in 10.0 mi Calm Calm - N/A   Clear
7:53 PM 84.0 °F 91.2 °F 73.9 °F 72% 29.95 in 10.0 mi Calm Calm - 0.00 in   Scattered Clouds
8:53 PM 82.0 °F 87.9 °F 73.9 °F 76% 29.97 in 10.0 mi Calm Calm - N/A   Clear
9:53 PM 82.0 °F 87.4 °F 73.0 °F 74% 29.98 in 10.0 mi Calm Calm - 0.00 in   Clear
10:53 PM 80.1 °F 84.2 °F 73.0 °F 79% 29.98 in 10.0 mi Calm Calm - N/A   Clear
11:53 PM 79.0 °F - 72.0 °F 79% 29.97 in 10.0 mi Calm Calm - N/A   Clear